Location: Engelmannsreuth
(49.8125°N, 11.6497°E)
Time: 08:39:15
(UTC+00:00)

Cosmos 1408 Rocket - Pass Details

Date: 17 February 2020
Orbit: 602 x 630 km, 82.6° (Epoch: 31 March)

Event Time Altitude Azimuth Distance (km) Brightness Sun altitude
Rises 04:08:34 0° 346° (NNW) 2,876 6.9 -22.0°
Reaches altitude 10° 04:10:49 10° 342° (NNW) 1,971 6.0 -21.6°
Enters shadow 04:11:22 13° 341° (NNW) 1,755 5.7 -21.5°
Exits shadow 04:16:23 39° 210° (SSW) 923 4.1 -20.7°
Drops below altitude 10° 04:19:21 10° 187° (S) 1,970 6.0 -20.2°
Sets 04:21:35 0° 184° (S) 2,875 6.9 -19.9°
